Home   Weather   Bamberg   Past weeks

Flag for Germany Past Weather in Bamberg, Bavaria, Germany — Yesterday and Last 2 Weeks

Now
28 °F

Light snow. Broken clouds.


Feels Like: 21 °F
Forecast: 18 / 26 °F
Wind: 7 mph from North

Location: Nuernberg

Current Time: Jan 16, 2017 at 12:09:25 pm

Latest Report: Jan 16, 2017 at 11:50 am


Visibility: 6 mi

Pressure: 30.18 "Hg

Humidity: 80%

Dew Point: 23 °F

Location of BambergLocation

Past Weather in Bamberg — Graph

°F

Bamberg Temperature Yesterday

Maximum temperature yesterday: 32 °F (at 1:50 am)
Minimum temperature yesterday: 27 °F (at 10:50 pm)
Average temperature yesterday: 30 °F

High & Low Weather Summary for the Past Weeks

 TemperatureHumidityPressure
High41 °F (Jan 13, 5:50 am)100% (Jan 1, 7:50 pm)30.72 "Hg (Jan 1, 7:50 pm)
Low1 °F (Jan 7, 2:50 am)47% (Jan 5, 3:20 am)29.27 "Hg (Jan 13, 2:20 am)
Average28 °F85%30.09 "Hg
* Reported Jan 1 10:20 am — Jan 16 10:50 am, Bamberg, Weather by CustomWeather, © 2017

Note: Actual official high and low records may vary slightly from our data, if they occured in-between our weather recording intervals... More about our weather records

Advertising

Bamberg Weather History for the Previous 24 Hours

Scroll right to see more
 ConditionsComfort  
Time TempWeatherWind HumidityBarometerVisibility
10:50 am
Mon, Jan 16
27 °FLight snow. Partly sunny.5 mph86%30.21 "Hg4 mi
10:20 am25 °FLight snow. Partly sunny.1 mph100%30.18 "Hg4 mi
9:50 am23 °FScattered clouds.1 mph93%30.18 "HgN/A
9:20 am21 °FFog.2 mph100%30.18 "Hg6 mi
8:50 am23 °FFog.No wind93%30.18 "Hg5 mi
8:20 am23 °FFog.1 mph93%30.15 "Hg4 mi
7:50 am23 °FPassing clouds.1 mph93%30.15 "Hg4 mi
7:20 am23 °FPassing clouds.2 mph100%30.15 "HgN/A
6:50 am25 °FPassing clouds.2 mph100%30.15 "HgN/A
6:20 am25 °FPartly cloudy.3 mph93%30.12 "HgN/A
5:50 am27 °FPassing clouds.3 mph93%30.12 "HgN/A
5:20 am25 °FPassing clouds.3 mph100%30.12 "HgN/A
4:50 am25 °FPassing clouds.3 mph100%30.12 "HgN/A
4:20 am25 °FPassing clouds.2 mph100%30.12 "HgN/A
3:50 am25 °FLight snow. Passing clouds.3 mph100%30.12 "Hg6 mi
3:20 am25 °FLight snow. Passing clouds.3 mph100%30.12 "Hg6 mi
2:50 am25 °FLight snow. Passing clouds.5 mph100%30.12 "Hg6 mi
2:20 am25 °FLight snow. Passing clouds.3 mph93%30.12 "Hg6 mi
1:50 am23 °FFog.1 mph100%30.12 "HgN/A
1:20 am25 °FFog.1 mph93%30.12 "HgN/A
12:50 am25 °FFog.2 mph93%30.12 "HgN/A
12:20 am25 °FPassing clouds.2 mph93%30.12 "HgN/A
11:50 pm
Sun, Jan 15
27 °FPassing clouds.2 mph93%30.12 "HgN/A
11:20 pm27 °FPassing clouds.1 mph100%30.12 "HgN/A
10:50 pm27 °FPartly cloudy.5 mph100%30.12 "HgN/A
10:20 pm28 °FPartly cloudy.3 mph93%30.12 "HgN/A
9:50 pm28 °FLight snow. Partly cloudy.5 mph93%30.09 "HgN/A
9:20 pm28 °FLight snow. Partly cloudy.6 mph100%30.09 "Hg4 mi
8:50 pm30 °FLight snow. Partly cloudy.9 mph93%30.09 "Hg4 mi
8:20 pm28 °FLight snow. Partly cloudy.10 mph100%30.09 "Hg3 mi
7:50 pm30 °FLight snow. Partly cloudy.12 mph86%30.09 "Hg6 mi
7:20 pm30 °FLight snow. Passing clouds.9 mph86%30.09 "HgN/A
6:50 pm30 °FLight snow. Partly cloudy.9 mph86%30.09 "Hg6 mi
6:20 pm30 °FPartly cloudy.9 mph86%30.09 "Hg6 mi
5:50 pm30 °FSnow flurries. Partly cloudy.8 mph86%30.09 "Hg2 mi
5:20 pm30 °FPartly cloudy.6 mph86%30.09 "HgN/A
4:50 pm30 °FPassing clouds.9 mph86%30.09 "HgN/A
4:20 pm30 °FScattered clouds.14 mph86%30.09 "HgN/A
3:20 pm32 °FBroken clouds.15 mph80%30.07 "HgN/A
2:50 pm32 °FBroken clouds.10 mph80%30.07 "HgN/A
2:20 pm32 °FBroken clouds.13 mph80%30.07 "HgN/A
1:50 pm32 °FLight snow. Broken clouds.13 mph80%30.07 "HgN/A
1:20 pm32 °FLight snow. Broken clouds.14 mph80%30.07 "Hg4 mi
12:50 pm32 °FLight snow. Partly sunny.14 mph80%30.07 "HgN/A
12:20 pm32 °FLight snow. Broken clouds.13 mph80%30.07 "Hg6 mi
Weather by CustomWeather, © 2017

See weather overviewHow to use our weather pages